Location: Bodest
(46.3000°N, 22.5667°E)
Time: 21:18:54
(UTC+00:00)

USA 215 - Pass Details

Date: 16 October 2021
Orbit: 1099 x 1109 km, 123.0° (Epoch: 20 November)

Event Time Altitude Azimuth Distance (km) Brightness Sun altitude
Exits shadow 19:42:15 36° 336° (NNW) 1,681 4.4 -40.6°
Drops below altitude 10° 19:46:19 10° 310° (NW) 2,966 6.2 -41.2°
Sets 19:48:54 0° 305° (NW) 3,926 7.0 -41.5°
